EW2337 Weather Reports


time (UTC)temp
C
wind
direction
speed
KPH
gust
KPH
rain 1hr
cm
rain 24hr
cm
rain mn
cm
humidity
%
barometer
mb
20260504110503 9 252 1.6 6.4 0.00 0.00 0.00 80 1017.4
20260504110351 9 255 1.6 3.2 0.00 0.00 0.00 80 1016.3
20260504100503 7 257 0.0 1.6 0.00 0.00 0.00 81 1017.6
20260504100308 7 253 0.0 0.0 0.00 0.00 0.00 81 1016.6
20260504081702 7 249 0.0 0.0 0.00 0.00 0.00 76 1016.8
20260504081503 8 250 1.6 3.2 0.00 0.00 0.00 76 1017.6
20260504081158 8 249 0.0 3.2 0.00 0.00 0.00 76 1016.6
20260504081003 8 254 1.6 3.2 0.00 0.00 0.00 76 1017.3
20260504080655 8 268 3.2 3.2 0.00 0.00 0.00 76 1016.7
20260504080503 8 252 1.6 3.2 0.00 0.00 0.00 76 1017.4
20260504080152 8 257 1.6 3.2 0.00 0.00 0.00 76 1016.7
20260504070119 8 251 1.6 3.2 0.00 0.00 0.00 72 1016.4
20260504050508 9 243 3.2 8.0 0.00 0.00 0.00 65 1016.3
20260504050503 9 251 3.2 6.4 0.00 0.00 0.00 65 1016.9
20260504050005 9 226 3.2 8.0 0.00 0.00 0.00 64 1016.4
20260504050003 9 249 3.2 6.4 0.00 0.00 0.00 64 1017.0
20260504045503 9 250 3.2 6.4 0.00 0.00 0.00 64 1017.3
20260504045500 9 254 4.8 8.0 0.00 0.00 0.00 64 1016.2
20260504045004 9 253 1.6 4.8 0.00 0.00 0.00 63 1017.2
20260504044957 10 226 4.8 4.8 0.00 0.00 0.00 63 1016.5
20260504044504 10 244 3.2 11.3 0.00 0.00 0.00 63 1017.1
20260504044454 10 256 0.0 1.6 0.00 0.00 0.00 63 1016.3
20260504044024 10 243 4.8 11.3 0.00 0.00 0.00 62 1017.3
20260504043952 10 264 6.4 11.3 0.00 0.00 0.00 62 1016.5
20260504043503 10 248 3.2 6.4 0.00 0.00 0.00 62 1017.0
20260504043449 10 233 4.8 4.8 0.00 0.00 0.00 62 1016.3
20260504043003 10 249 3.2 4.8 0.00 0.00 0.00 61 1016.8
20260504042946 10 249 3.2 3.2 0.00 0.00 0.00 61 1016.1
20260504042503 10 246 3.2 4.8 0.00 0.00 0.00 60 1016.9
20260504042442 10 256 3.2 3.2 0.00 0.00 0.00 59 1016.2
20260504042003 10 248 3.2 4.8 0.00 0.00 0.00 58 1016.9
20260504041939 10 252 3.2 4.8 0.00 0.00 0.00 58 1016.2
20260504041503 10 251 3.2 9.7 0.00 0.00 0.00 58 1016.9
20260504041436 10 245 3.2 4.8 0.00 0.00 0.00 58 1016.1
20260504041003 10 250 4.8 9.7 0.00 0.00 0.00 57 1016.7
20260504040931 10 263 1.6 4.8 0.00 0.00 0.00 57 1016.0
20260504040524 10 248 4.8 9.7 0.00 0.00 0.00 57 1017.1
20260504040429 10 275 4.8 4.8 0.00 0.00 0.00 56 1016.0
20260504040005 10 248 3.2 6.4 0.00 0.00 0.00 57 1016.7
20260504035925 10 256 1.6 4.8 0.00 0.00 0.00 57 1015.9
20260504035503 10 252 3.2 6.4 0.00 0.00 0.00 57 1016.7
20260504035423 10 259 4.8 4.8 0.00 0.00 0.00 57 1015.9
20260504035003 10 251 1.6 9.7 0.00 0.00 0.00 57 1016.7
20260504034919 10 227 3.2 8.0 0.00 0.00 0.00 57 1015.8
20260504034503 10 249 1.6 9.7 0.00 0.00 0.00 57 1016.4
20260504034417 10 256 4.8 9.7 0.00 0.00 0.00 57 1015.7
20260504034003 10 250 3.2 6.4 0.00 0.00 0.00 57 1016.5
20260504033914 10 257 3.2 3.2 0.00 0.00 0.00 58 1015.7
20260504033503 10 252 1.6 4.8 0.00 0.00 0.00 58 1016.8
20260504033412 10 243 3.2 4.8 0.00 0.00 0.00 58 1015.8
20260504033003 10 260 0.0 3.2 0.00 0.00 0.00 59 1016.5
20260504032908 10 247 0.0 0.0 0.00 0.00 0.00 59 1015.8
20260504032503 10 260 0.0 3.2 0.00 0.00 0.00 59 1016.4
20260504032405 10 252 0.0 0.0 0.00 0.00 0.00 59 1015.7
20260504032003 9 259 0.0 3.2 0.00 0.00 0.00 60 1016.6
20260504031902 9 259 1.6 3.2 0.00 0.00 0.00 60 1015.6
20260504031503 9 0 0.0 0.0 0.00 0.00 0.00 60 1016.7
20260504031359 10 246 0.0 0.0 0.00 0.00 0.00 60 1015.7
20260504031003 9 0 0.0 0.0 0.00 0.00 0.00 60 1016.5
20260504030855 9 261 0.0 0.0 0.00 0.00 0.00 61 1015.5
20260504030503 9 0 0.0 0.0 0.00 0.00 0.00 62 1016.4
20260504030353 9 251 0.0 0.0 0.00 0.00 0.00 62 1015.8
20260504030003 9 0 0.0 0.0 0.00 0.00 0.00 62 1016.6
20260504025848 9 252 0.0 0.0 0.00 0.00 0.00 62 1015.6
20260504025503 9 0 0.0 0.0 0.00 0.00 0.00 62 1016.3
20260504025345 9 255 0.0 0.0 0.00 0.00 0.00 62 1015.6
20260504025003 9 0 0.0 0.0 0.00 0.00 0.00 63 1016.6
20260504024842 9 250 0.0 0.0 0.00 0.00 0.00 62 1015.8
20260504024503 9 0 0.0 0.0 0.00 0.00 0.00 63 1016.5
20260504024338 9 257 0.0 0.0 0.00 0.00 0.00 63 1015.7
20260504024003 9 0 0.0 0.0 0.00 0.00 0.00 64 1016.7
20260504023836 9 257 0.0 0.0 0.00 0.00 0.00 63 1015.5
20260504023503 9 0 0.0 0.0 0.00 0.00 0.00 62 1016.7
20260504023333 9 251 0.0 0.0 0.00 0.00 0.00 62 1015.5
20260504023003 10 0 0.0 0.0 0.00 0.00 0.00 62 1016.5
20260504022828 10 258 0.0 0.0 0.00 0.00 0.00 61 1015.8
20260504022503 10 0 0.0 0.0 0.00 0.00 0.00 60 1016.7
20260504022325 10 257 0.0 0.0 0.00 0.00 0.00 61 1015.7
20260504022003 10 0 0.0 0.0 0.00 0.00 0.00 60 1016.5
20260504021822 10 257 0.0 0.0 0.00 0.00 0.00 59 1015.6
20260504021524 10 0 0.0 0.0 0.00 0.00 0.00 57 1016.6
20260504021319 10 253 0.0 0.0 0.00 0.00 0.00 59 1015.7
20260504021003 10 0 0.0 0.0 0.00 0.00 0.00 60 1016.7
20260504020816 10 254 0.0 0.0 0.00 0.00 0.00 60 1015.7
20260504020503 10 0 0.0 0.0 0.00 0.00 0.00 59 1016.7
20260504020313 10 252 0.0 0.0 0.00 0.00 0.00 59 1015.7
20260504020003 10 0 0.0 0.0 0.00 0.00 0.00 58 1016.5
20260504015809 10 251 0.0 0.0 0.00 0.00 0.00 57 1015.6
20260504015503 10 0 0.0 0.0 0.00 0.00 0.00 55 1016.5
20260504015305 10 251 0.0 0.0 0.00 0.00 0.00 56 1015.6
20260504015024 10 0 0.0 0.0 0.00 0.00 0.00 56 1016.4
20260504014801 10 255 0.0 0.0 0.00 0.00 0.00 57 1015.5
20260504014503 10 0 0.0 0.0 0.00 0.00 0.00 57 1016.3
20260504014257 10 254 0.0 0.0 0.00 0.00 0.00 58 1015.3
20260504014003 10 0 0.0 0.0 0.00 0.00 0.00 58 1016.4
20260504013755 10 250 0.0 0.0 0.00 0.00 0.00 58 1015.5
20260504013503 10 0 0.0 0.0 0.00 0.00 0.00 57 1016.4
20260504013253 10 250 0.0 0.0 0.00 0.00 0.00 57 1015.6
20260504013003 10 0 0.0 0.0 0.00 0.00 0.00 58 1016.3
20260504012749 10 250 0.0 0.0 0.00 0.00 0.00 59 1015.6
20260504012524 10 0 0.0 0.0 0.00 0.00 0.00 59 1016.4
20260504012247 10 247 0.0 0.0 0.00 0.00 0.00 58 1015.6
20260504012003 10 0 0.0 0.0 0.00 0.00 0.00 58 1016.1
20260504011744 10 250 0.0 0.0 0.00 0.00 0.00 56 1015.3
20260504011503 10 0 0.0 0.0 0.00 0.00 0.00 56 1016.2
20260504011240 10 250 0.0 0.0 0.00 0.00 0.00 54 1015.2
20260504011003 10 0 0.0 0.0 0.00 0.00 0.00 55 1016.0
20260504010737 10 250 0.0 0.0 0.00 0.00 0.00 56 1015.2
20260504010503 10 0 0.0 0.0 0.00 0.00 0.00 55 1016.1
20260504010232 10 250 0.0 0.0 0.00 0.00 0.00 56 1015.2
20260504010004 11 0 0.0 0.0 0.00 0.00 0.00 56 1016.0
20260504005729 11 249 0.0 0.0 0.00 0.00 0.00 56 1015.1
20260504005503 11 0 0.0 0.0 0.00 0.00 0.00 55 1015.9
20260504005226 11 247 0.0 0.0 0.00 0.00 0.00 55 1014.9
20260504005004 11 0 0.0 0.0 0.00 0.00 0.00 54 1015.8
20260504004724 11 249 0.0 0.0 0.00 0.00 0.00 54 1014.8
20260504004503 11 0 0.0 0.0 0.00 0.00 0.00 53 1015.9
20260504004220 11 250 0.0 0.0 0.00 0.00 0.00 51 1015.0
20260504004003 11 0 0.0 0.0 0.00 0.00 0.00 51 1016.0
20260504003718 12 250 0.0 0.0 0.00 0.00 0.00 50 1014.9
20260504003503 12 0 0.0 0.0 0.00 0.00 0.00 50 1015.7
20260504003214 12 250 0.0 0.0 0.00 0.00 0.00 47 1014.9
20260504003003 12 246 0.0 1.6 0.00 0.00 0.00 46 1015.5
20260504002711 12 251 0.0 0.0 0.00 0.00 0.00 45 1014.9
20260504002503 13 245 0.0 3.2 0.00 0.00 0.00 45 1015.6
20260504002208 13 246 0.0 0.0 0.00 0.00 0.00 44 1014.7
20260504002003 13 244 1.6 4.8 0.00 0.00 0.00 43 1015.7
20260504001706 13 247 0.0 3.2 0.00 0.00 0.00 43 1014.7
20260504001524 13 245 3.2 6.4 0.00 0.00 0.00 42 1015.5
20260504001202 13 239 3.2 3.2 0.00 0.00 0.00 42 1014.6
20260504001003 13 247 1.6 6.4 0.00 0.00 0.00 42 1015.3
20260504000659 13 225 1.6 3.2 0.00 0.00 0.00 41 1014.4
20260504000503 13 247 1.6 4.8 0.00 0.00 0.00 42 1015.4
20260504000156 13 248 0.0 1.6 0.00 0.00 0.00 41 1014.4
20260504000003 13 249 1.6 4.8 0.00 0.00 0.00 42 1015.1
20260503235654 14 250 0.0 4.8 0.00 0.00 0.00 41 1014.5
20260503235503 14 246 3.2 9.7 0.00 0.00 0.00 40 1015.2
20260503235151 14 253 1.6 8.0 0.00 0.00 0.00 40 1014.5
20260503235003 14 244 1.6 9.7 0.00 0.00 0.00 39 1015.0
20260503234649 14 245 1.6 3.2 0.00 0.00 0.00 40 1014.4
20260503234503 14 245 1.6 9.7 0.00 0.00 0.00 39 1015.3
20260503234147 14 248 0.0 1.6 0.00 0.00 0.00 40 1014.6
20260503234003 14 246 3.2 9.7 0.00 0.00 0.00 40 1015.2
20260503233643 15 235 1.6 4.8 0.00 0.00 0.00 38 1014.3
20260503233503 15 242 3.2 9.7 0.00 0.00 0.00 39 1015.1
20260503233139 15 241 4.8 8.0 0.00 0.00 0.00 38 1014.5
20260503233003 15 239 4.8 16.1 0.00 0.00 0.00 37 1015.1
20260503232636 15 247 1.6 8.0 0.00 0.00 0.00 38 1014.2
20260503232503 15 243 6.4 16.1 0.00 0.00 0.00 37 1015.1
20260503232133 15 247 6.4 12.9 0.00 0.00 0.00 36 1014.3
20260503232003 15 240 6.4 20.9 0.00 0.00 0.00 37 1015.1
20260503231631 15 250 4.8 14.5 0.00 0.00 0.00 37 1014.2
20260503231503 15 236 6.4 20.9 0.00 0.00 0.00 37 1015.1
20260503231127 15 244 4.8 8.0 0.00 0.00 0.00 37 1014.2
20260503231003 15 242 4.8 14.5 0.00 0.00 0.00 37 1015.0
20260503230625 15 235 1.6 8.0 0.00 0.00 0.00 37 1014.1
20260503230503 15 248 3.2 11.3 0.00 0.00 0.00 38 1014.9
20260503230122 15 258 8.0 9.7 0.00 0.00 0.00 37 1014.0
20260503230003 15 246 3.2 12.9 0.00 0.00 0.00 37 1015.0
20260503225619 15 246 6.4 8.0 0.00 0.00 0.00 37 1014.2
20260503225503 15 241 4.8 16.1 0.00 0.00 0.00 37 1014.9
20260503225118 15 245 1.6 3.2 0.00 0.00 0.00 37 1014.2
20260503225003 15 244 6.4 17.7 0.00 0.00 0.00 37 1014.9
20260503224616 15 249 3.2 12.9 0.00 0.00 0.00 37 1014.1
20260503224503 15 246 4.8 17.7 0.00 0.00 0.00 36 1015.1
20260503224114 15 228 4.8 17.7 0.00 0.00 0.00 36 1014.2
20260503224003 15 247 3.2 11.3 0.00 0.00 0.00 36 1014.9
20260503223612 15 239 3.2 4.8 0.00 0.00 0.00 37 1014.2
20260503223503 15 251 3.2 11.3 0.00 0.00 0.00 36 1015.1
20260503223108 15 280 4.8 8.0 0.00 0.00 0.00 36 1014.2
20260503223003 15 252 3.2 12.9 0.00 0.00 0.00 36 1015.0
20260503222606 15 340 4.8 12.9 0.00 0.00 0.00 35 1014.0
20260503222503 16 251 4.8 12.9 0.00 0.00 0.00 34 1015.0
20260503222103 16 242 6.4 11.3 0.00 0.00 0.00 34 1014.4
20260503222003 16 247 4.8 14.5 0.00 0.00 0.00 35 1014.8
20260503221601 16 263 8.0 8.0 0.00 0.00 0.00 34 1014.1
20260503221503 16 252 6.4 20.9 0.00 0.00 0.00 34 1015.1
20260503221059 16 215 4.8 12.9 0.00 0.00 0.00 34 1014.2
20260503221024 16 253 8.0 22.5 0.00 0.00 0.00 34 1015.1
20260503220555 16 259 14.5 20.9 0.00 0.00 0.00 34 1014.3
20260503220503 16 252 6.4 22.5 0.00 0.00 0.00 34 1015.1
20260503220052 16 229 4.8 12.9 0.00 0.00 0.00 35 1014.1
20260503220003 16 253 4.8 17.7 0.00 0.00 0.00 35 1015.1
20260503215549 16 268 3.2 17.7 0.00 0.00 0.00 35 1014.2
20260503215524 16 249 6.4 20.9 0.00 0.00 0.00 35 1015.0
20260503215046 16 231 3.2 11.3 0.00 0.00 0.00 34 1014.2
20260503215003 16 248 6.4 22.5 0.00 0.00 0.00 34 1014.9
20260503214544 16 239 6.4 14.5 0.00 0.00 0.00 33 1014.1
20260503214503 16 249 4.8 22.5 0.00 0.00 0.00 34 1014.9
20260503214040 16 242 4.8 8.0 0.00 0.00 0.00 34 1014.2
20260503214003 16 249 4.8 20.9 0.00 0.00 0.00 35 1015.2
20260503213539 16 226 3.2 8.0 0.00 0.00 0.00 35 1014.1
20260503213503 16 250 9.7 25.7 0.00 0.00 0.00 36 1015.0
20260503213035 16 223 14.5 25.7 0.00 0.00 0.00 34 1014.2
20260503213003 16 247 8.0 25.7 0.00 0.00 0.00 34 1015.1
20260503212532 16 262 3.2 16.1 0.00 0.00 0.00 34 1014.2
20260503212503 16 246 6.4 16.1 0.00 0.00 0.00 34 1015.1
20260503212030 16 243 6.4 12.9 0.00 0.00 0.00 34 1014.0
20260503212024 16 247 6.4 20.9 0.00 0.00 0.00 34 1014.9
20260503211527 16 228 4.8 16.1 0.00 0.00 0.00 35 1014.3
20260503211524 16 242 6.4 20.9 0.00 0.00 0.00 35 1014.9
20260503211022 16 248 4.8 14.5 0.00 0.00 0.00 35 1014.3
20260503211003 16 244 6.4 17.7 0.00 0.00 0.00 34 1015.0
20260503210524 16 247 6.4 17.7 0.00 0.00 0.00 33 1014.7
20260503210519 16 233 12.9 16.1 0.00 0.00 0.00 33 1014.0
20260503210015 16 256 3.2 14.5 0.00 0.00 0.00 35 1014.2
20260503210003 16 251 4.8 22.5 0.00 0.00 0.00 35 1015.0
20260503205512 16 283 1.6 22.5 0.00 0.00 0.00 36 1014.4
20260503205503 16 249 6.4 29.0 0.00 0.00 0.00 38 1015.1
20260503205008 16 254 6.4 17.7 0.00 0.00 0.00 34 1014.4
20260503205003 16 246 6.4 29.0 0.00 0.00 0.00 37 1014.9
20260503204505 16 235 0.0 9.7 0.00 0.00 0.00 36 1014.4
20260503204503 16 245 6.4 27.4 0.00 0.00 0.00 36 1015.1
20260503204002 15 260 3.2 11.3 0.00 0.00 0.00 35 1014.4
20260503203502 16 255 6.4 17.7 0.00 0.00 0.00 35 1015.1
20260503203459 16 247 9.7 12.9 0.00 0.00 0.00 35 1014.4
20260503203024 16 250 8.0 25.7 0.00 0.00 0.00 35 1015.4
20260503202956 16 259 8.0 17.7 0.00 0.00 0.00 37 1014.5
20260503202503 15 250 9.7 25.7 0.00 0.00 0.00 36 1015.2
20260503202454 15 275 4.8 25.7 0.00 0.00 0.00 36 1014.5
20260503202024 15 249 8.0 22.5 0.00 0.00 0.00 35 1015.4
20260503201952 15 254 11.3 20.9 0.00 0.00 0.00 36 1014.5
20260503201503 15 244 8.0 25.7 0.00 0.00 0.00 37 1015.5
20260503201449 15 277 9.7 20.9 0.00 0.00 0.00 36 1014.3
20260503201003 15 245 8.0 33.8 0.00 0.00 0.00 37 1015.7
20260503200947 15 272 12.9 16.1 0.00 0.00 0.00 36 1014.6
20260503200524 15 259 8.0 33.8 0.00 0.00 0.00 37 1015.5
20260503200443 15 247 3.2 16.1 0.00 0.00 0.00 37 1014.6
20260503200003 15 258 9.7 24.1 0.00 0.00 0.00 37 1015.4
20260503195940 15 255 6.4 17.7 0.00 0.00 0.00 36 1014.5
20260503195503 15 248 8.0 24.1 0.00 0.00 0.00 37 1015.5
20260503195437 15 247 8.0 11.3 0.00 0.00 0.00 36 1014.6
20260503195003 16 252 6.4 22.5 0.00 0.00 0.00 36 1015.7
20260503194933 16 248 11.3 14.5 0.00 0.00 0.00 37 1014.7
20260503194503 15 264 4.8 16.1 0.00 0.00 0.00 37 1015.4
20260503194430 15 258 4.8 9.7 0.00 0.00 0.00 39 1014.7
20260503194003 15 257 6.4 22.5 0.00 0.00 0.00 37 1015.4
20260503193926 15 270 1.6 11.3 0.00 0.00 0.00 40 1014.8
20260503193503 16 252 4.8 22.5 0.00 0.00 0.00 35 1015.5
20260503193421 16 227 6.4 16.1 0.00 0.00 0.00 37 1015.0
20260503193003 15 246 6.4 22.5 0.00 0.00 0.00 37 1015.7
20260503192917 15 231 4.8 8.0 0.00 0.00 0.00 36 1015.0
20260503192503 15 247 8.0 24.1 0.00 0.00 0.00 36 1015.5
20260503192414 15 245 4.8 14.5 0.00 0.00 0.00 38 1014.8
20260503192003 15 253 6.4 24.1 0.00 0.00 0.00 37 1015.8
20260503191910 15 244 8.0 24.1 0.00 0.00 0.00 39 1014.9
20260503191503 15 253 8.0 24.1 0.00 0.00 0.00 37 1015.5
20260503191408 15 263 4.8 11.3 0.00 0.00 0.00 40 1014.8
20260503191003 15 252 8.0 22.5 0.00 0.00 0.00 36 1015.8
20260503190903 15 214 4.8 22.5 0.00 0.00 0.00 38 1015.0
20260503190503 15 248 6.4 17.7 0.00 0.00 0.00 36 1015.9
20260503190401 15 277 4.8 14.5 0.00 0.00 0.00 37 1015.1
20260503190003 15 243 8.0 22.5 0.00 0.00 0.00 37 1015.8
20260503185857 15 240 8.0 16.1 0.00 0.00 0.00 36 1014.9
20260503185503 15 246 9.7 25.7 0.00 0.00 0.00 37 1016.0
20260503185354 15 251 9.7 17.7 0.00 0.00 0.00 37 1015.1
20260503185003 15 254 8.0 25.7 0.00 0.00 0.00 36 1016.0
20260503184854 15 237 14.5 25.7 0.00 0.00 0.00 37 1015.2
20260503184503 15 255 6.4 25.7 0.00 0.00 0.00 35 1015.8
20260503184350 15 240 9.7 14.5 0.00 0.00 0.00 36 1015.1
20260503184003 15 245 6.4 24.1 0.00 0.00 0.00 37 1015.9
20260503183846 15 261 4.8 11.3 0.00 0.00 0.00 36 1015.2
20260503183503 14 248 8.0 25.7 0.00 0.00 0.00 37 1015.9
20260503183343 14 242 16.1 20.9 0.00 0.00 0.00 35 1015.3
20260503183003 15 249 6.4 25.7 0.00 0.00 0.00 36 1015.9
20260503182840 15 295 9.7 14.5 0.00 0.00 0.00 37 1015.4
20260503182503 15 253 4.8 17.7 0.00 0.00 0.00 37 1015.9
20260503182340 15 269 4.8 16.1 0.00 0.00 0.00 36 1015.2
20260503182003 15 257 4.8 22.5 0.00 0.00 0.00 34 1016.1
20260503181836 15 185 3.2 8.0 0.00 0.00 0.00 34 1015.5
20260503181504 15 257 6.4 22.5 0.00 0.00 0.00 36 1016.1
20260503181333 15 271 11.3 22.5 0.00 0.00 0.00 36 1015.3
20260503181024 14 254 4.8 16.1 0.00 0.00 0.00 37 1016.0
20260503180830 14 252 3.2 11.3 0.00 0.00 0.00 37 1015.5
20260503180503 14 248 4.8 17.7 0.00 0.00 0.00 37 1016.0
20260503180328 13 140 4.8 11.3 0.00 0.00 0.00 39 1015.4
20260503180003 13 251 4.8 17.7 0.00 0.00 0.00 40 1016.1
20260503175824 13 229 3.2 12.9 0.00 0.00 0.00 37 1015.5
20260503175503 14 248 6.4 17.7 0.00 0.00 0.00 40 1016.1
20260503175322 13 260 6.4 16.1 0.00 0.00 0.00 40 1015.2
20260503175024 13 244 6.4 17.7 0.00 0.00 0.00 39 1016.2
20260503174817 14 245 4.8 17.7 0.00 0.00 0.00 38 1015.5
20260503174503 14 246 6.4 16.1 0.00 0.00 0.00 39 1016.1
20260503174316 13 260 8.0 11.3 0.00 0.00 0.00 39 1015.6
20260503174003 13 242 6.4 25.7 0.00 0.00 0.00 39 1016.2
20260503173811 13 254 12.9 16.1 0.00 0.00 0.00 37 1015.6
20260503173503 13 235 6.4 25.7 0.00 0.00 0.00 38 1016.4
20260503173307 14 273 4.8 14.5 0.00 0.00 0.00 40 1015.4
20260503173003 14 245 4.8 17.7 0.00 0.00 0.00 39 1016.6
20260503172804 13 268 1.6 17.7 0.00 0.00 0.00 41 1015.7
20260503172503 13 253 6.4 17.7 0.00 0.00 0.00 40 1016.5
20260503172302 13 263 4.8 17.7 0.00 0.00 0.00 40 1015.8
20260503172003 13 255 6.4 17.7 0.00 0.00 0.00 40 1016.5
20260503171757 13 239 3.2 17.7 0.00 0.00 0.00 41 1015.6
20260503171503 12 245 8.0 22.5 0.00 0.00 0.00 41 1016.7
20260503171255 12 274 4.8 8.0 0.00 0.00 0.00 40 1015.7
20260503171003 12 235 8.0 22.5 0.00 0.00 0.00 40 1016.6
20260503170752 13 232 14.5 22.5 0.00 0.00 0.00 38 1015.9
20260503170524 14 238 4.8 22.5 0.00 0.00 0.00 39 1016.4
20260503170248 13 242 3.2 11.3 0.00 0.00 0.00 46 1015.8
20260503160210 12 264 8.0 14.5 0.00 0.00 0.00 44 1016.1
20260503151003 12 263 4.8 12.9 0.00 0.00 0.00 47 1016.9
20260503150641 12 278 4.8 9.7 0.00 0.00 0.00 47 1016.3
20260503150503 12 256 4.8 12.9 0.00 0.00 0.00 47 1016.9
20260503150137 12 229 4.8 9.7 0.00 0.00 0.00 50 1016.0
20260503131030 10 229 0.0 3.2 0.00 0.00 0.00 56 1015.6
20260503131003 9 254 3.2 14.5 0.00 0.00 0.00 56 1016.7
20260503130527 9 250 8.0 14.5 0.00 0.00 0.00 55 1015.9
20260503130524 9 253 4.8 14.5 0.00 0.00 0.00 55 1016.5